Dewpoint
55 56 56 57 56 57 58 58 58 59 58 59 59 59 59 57 58 58 56 57 57 57 57 58 58 58 58 58 59 59 59 60 59 59 58 57 57 56 55 55 55 54 51 49 47 48 48 47 44 42 36 35 33 32 31 30 29 29 28 27 26 24 20 18 17 22 23 27 26 26 26 24 23 26 25 26 24 25 26 25 25 23 23 23 23
50 51 50 52 54 55 55 53 56 56 56 57 57 58 58 58 57 55 56 57 56 57 57 57 57 57 58 58 58 59 59 59 58 57 57 56 56 55 52 52 53 51 49 48 45 45 44 43 40 38 36 37 35 34 31 29 28 28 27 26 26 25 24 21 20 22 21 24 24 25 24 25 19 26 25 24 22 24 23 24 24 23 23 23 22
44 46 48 48 50 50 50 52 53 53 54 56 56 56 56 55 53 54 55 55 54 56 56 56 56 57 57 58 58 58 58 58 57 56 56 55 55 53 53 52 51 48 47 47 45 44 43 43 40 36 35 34 33 32 30 28 28 26 26 26 25 26 27 24 22 21 21 23 25 23 23 24 22 23 25 25 24 24 23 23 22 23 24 24 22
41 43 45 46 47 47 49 49 49 50 52 53 53 53 53 52 52 53 54 54 54 54 54 56 55 56 57 57 57 57 57 56 55 55 55 53 51 50 49 50 51 49 49 47 45 43 43 41 39 36 35 35 32 30 29 28 27 26 26 26 25 26 26 25 24 22 22 22 24 23 26 22 24 24 26 24 23 23 23 24 23 22 22 23 22
39 39 40 44 43 45 46 46 49 49 50 50 51 51 51 52 51 52 52 52 53 52 52 53 55 56 57 57 57 56 56 55 55 53 53 53 53 51 50 49 49 49 49 48 44 44 43 43 39 36 35 36 34 34 33 27 26 26 25 25 25 27 27 25 25 24 21 21 24 26 25 24 25 23 23 21 23 23 23 22 22 22 21 22 23
38 38 39 42 44 44 44 43 45 47 47 46 47 46 46 46 48 49 50 53 51 51 52 53 54 56 56 56 56 55 54 53 53 52 52 51 50 51 51 50 50 50 48 47 45 44 44 43 39 36 35 36 32 30 28 27 26 26 26 25 26 26 25 24 23 21 18 20 21 23 23 22 21 22 22 23 21 18 20 22 21 22 20 20 21
38 39 40 42 43 44 43 44 44 44 43 43 42 41 43 43 45 47 45 49 50 51 51 53 53 55 55 55 54 53 53 52 53 53 52 51 51 50 49 48 49 48 47 45 43 42 42 40 37 36 35 35 33 30 28 27 26 25 26 25 25 23 23 24 22 20 20 21 23 22 22 24 21 19 22 22 22 22 21 22 21 19 20 20 20
39 41 41 42 42 43 42 43 43 44 44 44 43 42 42 43 43 45 45 49 50 51 52 53 53 53 53 52 52 50 51 51 52 52 51 50 49 48 47 46 44 41 39 38 38 38 38 37 36 36 36 34 31 28 27 26 26 25 27 26 25 22 22 23 22 20 20 19 20 21 21 20 19 22 22 22 22 22 23 22 20 20 20 20 19
39 41 41 42 42 41 41 40 41 42 43 44 44 44 43 42 42 43 43 45 48 49 50 51 51 50 48 48 51 50 50 48 47 47 47 47 47 46 44 42 40 39 38 37 36 36 36 36 35 34 33 30 29 29 29 29 26 25 26 26 24 22 23 23 23 22 22 19 21 21 21 20 19 19 20 20 20 20 22 21 20 20 19 19 19
42 42 42 42 41 40 40 40 41 41 42 43 43 42 41 41 41 42 42 41 42 43 45 45 46 46 47 46 47 48 48 49 44 44 45 48 46 45 42 40 39 38 37 35 34 34 34 34 34 31 30 29 29 30 30 30 29 26 26 26 25 24 25 24 24 23 23 21 21 21 22 21 20 20 19 21 23 22 21 20 19 18 17 17 17
41 42 43 42 41 40 40 39 38 40 39 40 40 40 40 39 39 40 40 40 41 40 41 43 43 44 45 44 42 44 46 46 43 45 45 44 44 42 41 39 39 38 37 36 35 34 32 31 30 30 29 29 29 30 31 31 30 29 30 29 27 23 25 24 24 23 22 22 23 22 20 19 20 21 20 23 23 21 21 20 19 18 16 12 7
42 42 42 41 40 41 39 39 38 37 37 38 38 38 38 38 38 39 38 39 39 39 39 41 41 40 42 41 42 42 42 42 43 43 43 43 41 40 39 39 38 38 38 37 35 31 29 29 29 29 26 26 27 29 30 31 31 31 30 30 29 29 28 23 24 24 24 23 23 22 21 20 21 22 22 22 22 21 21 19 18 17 17 13 12
42 42 41 40 39 39 39 39 39 37 36 36 36 36 37 38 38 38 38 37 36 38 39 39 39 39 39 40 40 40 40 41 42 41 42 42 41 39 38 38 37 36 36 35 33 33 32 32 30 28 27 29 29 28 29 29 31 31 31 30 30 30 30 30 29 23 24 24 23 23 21 20 20 21 22 22 22 20 19 18 18 18 18 15 14
42 41 40 40 39 39 38 38 38 38 36 35 35 36 36 37 36 36 35 35 36 37 37 37 38 37 38 39 38 38 38 39 41 41 40 40 40 39 37 36 35 35 34 33 32 32 32 32 30 27 27 28 28 28 28 28 28 28 28 27 27 29 31 30 30 29 27 24 22 22 22 21 20 21 22 24 21 19 18 17 18 18 17 16 12
42 41 39 39 39 38 38 37 37 37 36 36 35 35 35 35 35 35 35 36 36 36 36 36 37 37 37 38 38 37 38 38 40 40 40 40 39 37 35 35 34 34 33 33 32 32 31 30 28 27 27 27 27 28 27 27 27 28 27 27 26 27 28 27 26 26 25 24 22 20 21 21 21 22 23 23 21 21 20 18 19 18 17 13 11
41 40 39 39 39 38 38 37 37 36 35 35 35 35 35 35 35 34 35 35 34 35 35 36 36 36 35 36 36 36 35 37 39 39 39 39 38 35 35 34 34 33 33 32 32 31 29 27 26 26 26 27 29 31 29 27 27 26 26 26 26 26 26 27 28 27 25 23 22 21 23 21 24 23 23 22 21 21 21 16 13 8 9 6 8
39 39 39 38 38 38 38 37 36 36 35 35 35 35 35 35 34 35 35 35 35 35 35 35 35 35 35 36 36 36 34 36 38 38 39 38 37 34 33 32 32 31 31 29 28 26 25 24 24 25 26 26 30 32 31 29 26 25 24 24 25 25 25 27 28 27 27 26 26 27 27 27 27 26 26 25 23 22 18 16 14 4 5 5 6
39 38 38 38 37 37 37 37 36 35 35 35 35 35 34 34 34 34 35 35 35 35 35 34 34 35 35 35 36 35 34 34 37 38 38 38 35 33 32 31 31 30 27 25 24 25 28 28 26 24 25 25 31 32 31 28 25 25 24 24 23 23 23 25 25 26 27 26 26 26 27 27 27 27 27 27 26 24 18 15 11 9 7 5 6
38 38 38 38 37 36 36 36 36 35 35 35 35 35 34 34 34 34 34 34 34 34 34 34 33 33 33 34 33 34 33 33 36 37 37 37 34 32 31 31 30 29 28 28 29 28 27 27 27 26 25 27 31 32 32 27 25 25 24 23 22 22 22 24 24 24 24 23 23 23 24 23 22 21 22 25 26 25 20 16 10 9 8 5 4
37 37 37 37 37 36 36 35 35 35 35 35 34 34 34 34 34 34 34 34 34 33 33 33 33 32 32 33 33 33 33 33 34 37 37 36 34 31 31 30 29 28 27 26 24 24 23 23 26 27 28 28 31 33 32 28 25 24 24 22 21 21 22 23 24 24 22 21 19 19 17 17 17 17 16 19 21 21 18 14 11 10 8 6 6
37 37 37 37 36 36 36 36 35 35 35 34 34 34 34 34 34 34 34 33 33 33 33 33 33 32 32 32 32 32 33 33 33 36 36 35 34 32 30 30 29 28 26 24 24 23 23 23 24 27 28 29 31 33 32 29 27 24 23 22 22 23 24 22 24 24 21 19 17 16 15 15 16 16 15 15 15 16 16 17 12 12 9 6 5
37 37 37 36 36 35 35 35 35 35 34 34 34 34 34 34 34 34 34 33 33 33 33 32 32 32 31 31 32 32 32 32 33 35 36 35 33 32 30 29 29 27 25 24 24 24 24 23 24 27 29 30 32 33 33 31 28 23 23 24 26 27 23 22 23 21 19 17 15 15 14 14 13 13 13 13 12 12 12 14 13 10 11 10 8
37 37 36 36 35 35 35 35 34 34 34 34 34 34 33 33 33 33 33 33 33 32 32 32 32 31 31 31 31 31 32 32 32 33 34 34 34 33 31 30 30 28 26 24 23 23 23 22 24 27 29 30 32 33 33 31 29 24 26 26 27 27 23 21 21 19 17 16 15 14 12 12 12 12 12 12 12 11 11 12 11 11 10 8 8
36 36 35 35 35 35 34 34 34 34 34 34 34 33 33 33 33 33 33 33 33 32 32 32 31 31 30 30 30 30 31 31 32 32 33 33 33 32 31 30 29 26 26 25 23 21 22 23 24 26 29 30 31 33 32 31 27 27 27 28 28 25 20 20 19 18 17 15 14 13 12 12 12 12 12 12 11 11 10 9 9 9 10 9 9
35 35 35 35 35 34 34 34 34 34 34 34 33 33 33 33 33 32 33 33 32 32 31 32 31 31 30 29 28 29 30 31 31 32 32 32 32 31 31 31 30 28 25 24 22 22 23 25 25 26 29 30 31 32 32 32 29 28 28 28 26 20 19 18 18 17 16 15 14 14 13 13 12 12 12 12 11 10 9 9 7 8 9 9 10
35 35 35 35 34 34 34 34 34 33 33 34 33 33 33 33 33 32 32 32 32 32 31 31 31 31 30 29 28 28 29 30 30 31 32 31 31 31 31 30 29 27 25 23 24 25 25 26 26 27 28 30 30 30 29 30 30 29 28 27 21 19 18 18 17 16 15 15 14 13 13 13 12 10 10 11 10 9 9 8 8 8 8 8 9
35 35 35 35 34 34 34 34 33 33 33 33 33 33 33 33 32 32 32 32 32 32 31 31 31 30 30 29 28 28 28 28 29 30 31 31 31 30 29 29 29 27 24 23 25 25 26 26 26 27 29 30 30 29 29 30 29 28 27 26 23 20 18 17 17 16 15 15 14 14 14 13 13 11 11 10 9 10 9 9 8 8 8 8 8
35 35 34 35 34 34 34 32 33 33 33 33 33 32 32 32 32 32 32 32 32 31 31 31 31 30 30 29 28 27 27 27 28 29 30 30 30 29 29 27 27 24 22 23 24 25 25 26 26 25 25 27 27 25 26 28 28 27 26 25 23 20 19 19 18 16 16 15 14 14 12 12 11 10 10 10 9 9 10 9 8 7 9 7 6
35 34 34 34 34 34 34 33 33 33 33 33 33 33 32 32 32 32 32 32 33 32 31 31 31 31 31 30 28 27 27 27 27 29 29 30 29 28 27 26 25 23 23 25 23 23 23 22 21 22 23 25 25 26 26 27 27 26 25 23 21 20 19 18 16 15 14 13 12 12 11 11 10 10 10 9 9 9 9 8 9 9 8 7 6
34 34 34 34 34 34 33 33 33 33 33 32 31 30 29 32 32 32 31 31 32 32 32 32 32 31 31 31 30 30 28 28 29 30 30 31 31 30 29 28 26 24 26 27 23 21 20 20 21 21 22 23 24 25 25 25 25 24 24 23 20 19 19 18 17 16 14 13 13 13 12 11 10 10 9 9 9 9 9 10 8 9 7 6 6
34 34 34 34 34 34 33 33 32 32 32 31 30 29 27 27 30 31 30 30 31 31 31 32 32 31 31 29 28 31 30 30 30 30 31 31 31 30 30 29 28 27 28 24 18 19 19 19 19 19 20 22 22 23 23 23 23 23 22 21 19 19 18 18 17 17 15 13 13 13 12 11 11 10 9 10 10 9 9 10 9 8 7 7 7
34 34 34 34 32 32 33 32 32 31 31 30 29 28 27 25 23 27 29 30 30 30 30 30 31 31 31 28 24 23 29 31 31 31 30 31 31 31 30 30 29 28 29 26 19 17 18 18 18 18 19 20 21 21 22 22 22 22 22 20 19 18 18 18 18 17 15 13 12 12 12 12 12 11 10 10 10 10 9 8 9 7 7 7 7
34 34 34 32 32 31 31 31 31 31 30 29 28 28 27 27 26 23 22 28 29 29 30 30 30 30 31 29 28 27 28 30 31 31 31 31 31 31 30 30 29 29 29 23 17 17 16 18 17 18 19 20 20 20 21 21 21 21 21 20 20 19 18 18 18 16 14 14 12 12 12 11 11 11 10 10 10 9 9 8 8 8 7 6 6
33 33 33 32 32 31 31 31 30 30 30 29 29 28 28 27 26 23 21 20 20 23 25 28 29 30 30 30 29 29 29 30 31 31 31 31 31 31 30 29 30 29 28 22 18 17 17 17 16 16 18 19 20 20 20 20 20 20 20 20 19 18 17 17 16 15 14 14 13 12 12 11 11 10 10 10 9 9 9 8 8 7 6 5 5
31 28 26 28 32 31 31 30 30 29 28 28 27 26 26 24 23 21 21 21 21 20 16 17 24 29 25 28 29 30 30 30 31 31 31 31 31 31 30 27 28 28 27 22 20 18 17 17 17 17 17 18 19 19 19 20 19 19 18 18 18 17 15 14 14 15 14 13 13 12 12 11 11 10 10 9 8 8 8 8 7 6 6 5 5
29 29 28 28 29 29 29 29 29 28 28 27 26 24 22 21 20 20 17 16 16 16 12 13 13 22 25 27 29 29 29 30 30 31 32 31 31 31 27 26 26 27 26 25 21 19 17 16 16 17 17 17 17 18 18 18 19 18 18 17 16 16 15 14 13 13 13 12 12 12 12 11 10 10 9 9 9 8 8 7 7 6 6 5 5
27 27 27 28 28 27 27 26 26 26 25 22 22 21 20 19 16 16 14 14 14 12 11 10 12 13 20 17 21 27 29 30 31 31 31 31 31 29 25 26 25 25 26 26 24 22 19 17 17 16 16 17 17 17 16 17 17 17 18 17 16 15 14 14 13 12 12 12 11 11 11 10 10 9 9 8 8 7 7 7 6 6 6 6 6
26 26 26 26 25 24 24 23 22 22 21 20 19 19 18 17 16 15 15 13 12 12 10 10 16 13 15 14 21 19 22 29 28 30 30 31 29 25 23 21 21 21 23 23 25 24 22 19 17 17 16 15 15 15 15 15 16 16 15 14 14 15 15 14 13 12 11 11 11 10 10 10 9 9 8 7 7 6 6 6 5 5 5 6 6
21 22 22 22 22 22 21 20 20 20 18 18 18 18 17 16 15 13 13 12 11 10 10 10 10 11 11 11 15 18 20 18 19 20 20 20 21 21 21 19 18 17 16 17 18 20 20 21 19 17 16 16 16 16 16 15 14 14 14 13 13 11 13 12 11 11 11 11 10 10 9 9 8 8 7 6 6 5 5 5 5 4 4 4 5
21 21 21 21 20 20 19 18 18 18 17 17 17 16 16 15 15 14 13 13 11 10 10 11 10 10 9 12 13 14 16 15 15 15 15 16 18 17 19 20 18 17 17 15 15 14 15 15 15 16 16 16 16 16 15 15 15 15 13 13 12 12 12 12 11 10 10 9 9 8 7 7 7 6 6 6 5 5 4 4 4 4 4 3 3
20 19 17 20 19 18 17 17 17 17 16 16 16 16 15 14 13 12 12 12 11 10 10 10 9 7 11 17 20 19 15 14 13 13 14 15 15 14 14 15 16 15 15 15 14 13 13 13 12 13 14 15 15 15 14 14 14 12 12 12 11 12 11 10 10 9 8 8 7 7 6 6 5 5 4 5 6 5 4 4 3 3 3 3 2
19 18 18 17 17 17 16 16 15 14 14 13 14 14 13 12 12 12 12 11 11 10 9 7 5 4 15 21 22 20 11 9 11 12 11 12 12 13 14 13 12 13 13 12 11 12 11 11 12 12 13 13 13 14 13 14 14 14 14 13 12 12 11 10 9 8 7 7 6 5 5 5 5 5 4 6 3 3 2 2 2 2 1 2 2
17 17 16 16 16 16 15 13 13 13 13 13 12 11 11 12 12 12 11 11 11 11 11 9 6 7 12 20 20 20 9 7 13 10 9 8 7 9 8 6 5 5 8 11 13 16 17 18 18 18 18 18 18 18 17 17 16 16 15 14 13 12 11 10 9 8 7 6 6 5 4 3 4 4 3 3 3 2 2 1 1 1 1 0 0
15 14 14 14 13 12 12 12 12 12 11 10 10 10 10 10 10 10 10 9 9 9 8 6 4 4 2 5 9 9 6 5 3 3 6 7 5 5 3 -1 -0 3 5 8 10 11 13 14 14 15 15 15 16 15 16 16 16 15 15 14 12 11 11 10 9 8 7 7 6 5 4 4 4 4 3 3 1 1 0 -0 -0 -0 -1 -1 -1
14 13 12 12 11 11 10 10 10 10 9 10 9 9 9 9 9 8 8 8 7 6 5 4 3 2 2 0 1 2 1 2 6 4 3 2 2 -0 -3 -3 -2 -1 0 2 1 2 2 2 1 2 3 4 3 3 3 5 7 10 13 14 13 12 11 10 10 9 8 7 7 6 5 4 4 4 3 2 1 0 0 -0 -0 1 -1 -2 -2
12 12 11 11 10 9 9 9 8 9 9 9 9 8 7 7 7 7 7 6 6 5 3 2 1 1 1 -0 1 3 1 2 2 4 4 2 -0 -2 -3 -3 -3 -2 -1 -0 -0 0 1 -0 -0 0 1 0 1 1 1 1 2 2 3 5 9 11 11 11 10 9 8 7 7 6 5 4 4 3 3 2 1 0 -0 -1 -2 -1 -1 -1 -2
11 11 10 10 9 8 8 7 8 7 7 7 7 6 6 5 5 5 4 5 4 3 3 0 1 0 -0 1 2 2 3 2 2 4 5 4 1 -0 -1 0 2 2 0 -1 -2 -2 -1 -1 -3 -3 -2 -2 -3 -3 -3 -3 -3 -3 -1 0 3 6 7 7 8 8 8 8 7 6 5 4 4 3 3 3 1 1 -0 -1 -1 -2 -2 -2 -3
10 9 9 8 8 7 7 7 6 5 5 5 5 4 4 4 4 4 4 4 4 4 3 2 2 2 3 4 5 5 5 5 5 5 4 4 3 2 2 2 2 -1 -3 -4 -5 -4 -4 -5 -6 -6 -5 -5 -4 -4 -5 -6 -6 -5 -5 -4 -3 -2 1 2 2 4 5 6 6 6 5 5 4 3 3 2 2 1 0 -0 -2 -4 -4 -4 -4
8 8 7 7 7 7 7 7 6 6 5 5 5 5 5 4 4 5 5 5 5 5 5 5 5 5 5 6 5 5 5 4 4 4 3 2 2 1 0 -0 -1 -2 -4 -6 -6 -6 -6 -7 -6 -7 -8 -8 -8 -7 -7 -7 -7 -7 -6 -6 -2 1 2 2 0 -1 2 4 5 5 5 4 4 3 2 2 2 1 1 -0 -2 -3 -4 -5 -4
7 7 6 6 6 6 6 6 6 6 6 6 6 5 5 5 5 5 6 6 6 5 5 5 5 5 5 5 4 4 4 3 3 2 2 1 -1 -2 -2 -4 -5 -6 -8 -8 -8 -9 -9 -10 -11 -10 -9 -10 -10 -9 -9 -8 -8 -7 -7 -5 0 2 3 4 4 4 3 2 3 4 4 3 3 2 2 2 1 0 -0 -1 -2 -2 -4 -5 -4
6 6 6 6 6 6 6 6 6 6 6 6 6 6 5 5 5 5 6 5 5 4 4 3 3 3 3 2 2 2 2 1 1 0 -1 -1 -2 -3 -4 -6 -7 -8 -10 -10 -10 -10 -11 -12 -11 -11 -10 -9 -9 -9 -10 -9 -9 -8 -2 1 2 3 2 1 -0 1 3 3 2 2 2 2 2 1 1 0 0 -1 -1 -2 -2 -2 -3 -3 -4